Location: Cañada de la Miga
(34.7595°N, 106.2317°W)
Time: 09:15:22
(UTC+00:00)

A-11 Canister half - Pass Details

Date: 06 December 2021
Orbit: 1516 x 1684 km, 47.2° (Epoch: 16 January)

Event Time Altitude Azimuth Distance (km) Brightness Sun altitude
Rises 12:14:38 0° 220° (SW) 4,691 11.3 -20.8°
Reaches altitude 10° 12:17:40 10° 218° (SW) 3,727 10.8 -20.2°
Maximum altitude 12:27:00 67° 138° (SE) 1,700 9.4 -18.3°
Drops below altitude 10° 12:36:44 10° 58° (ENE) 3,871 11.7 -16.4°
Sets 12:39:56 0° 56° (NE) 4,880 12.2 -15.8°
